Location: Newark
(5.8900°S, 42.6378°W)
Time: 14:41:20
(UTC+00:00)

OTV 5 (USA 277) - Pass Details

Date: 25 August 2019
Orbit: 295 x 339 km, 54.5° (Epoch: 08 September)

Event Time Altitude Azimuth Distance (km) Brightness Sun altitude
Rises 08:06:17 0° 339° (NNW) 2,011 ? -12.5°
Reaches altitude 10° 08:08:17 10° 347° (NNW) 1,198 ? -12.0°
Maximum altitude 08:10:47 38° 58° (ENE) 501 ? -11.4°
Drops below altitude 10° 08:13:22 10° 129° (SE) 1,230 ? -10.7°
Sets 08:15:25 0° 137° (SE) 2,076 ? -10.2°
